Regional Weather Roundup
Issued by NWS Columbia, SC

Home | Current Version | Previous Version | Text Only | Print | Product List | Glossary On
Versions: 1 2 3 4 5 6 7 8 9 10 11 12 13 14 15 16 17 18 19 20 21 22 23 24 25 26 27 28 29 30 31 32 33 34 35 36 37 38 39 40 41 42 43 44 45 46 47 48 49 50
000
ASUS42 KCAE 230610
RWRCAE
REGIONAL WEATHER ROUNDUP
NATIONAL WEATHER SERVICE COLUMBIA SC
200 AM EDT WED AUG 23 2017

NOTE: "FAIR" INDICATES FEW OR NO CLOUDS BELOW 12,000 FEET WITH NO
SIGNIFICANT WEATHER AND/OR OBSTRUCTIONS TO VISIBILITY.

NOT ALL STATIONS ARE QUALITY CONTROLLED BY THE NATIONAL
WEATHER SERVICE. USE DATA WITH CAUTION...ESPECIALLY
DEWPOINT OBSERVATIONS.

SCZ001>056-GAZ040-063>065-077-230700-
...UPSTATE SOUTH CAROLINA...

CITY           SKY/WX    TMP DP  RH WIND       PRES   REMARKS
ANDERSON       CLEAR     77  73  87 SW5       29.97F
6HR MIN TEMP:  76; 6HR MAX TEMP:  87;

LIBERTY        CLEAR     73  72  98 SW6         N/A
6HR MIN TEMP:  71; 6HR MAX TEMP:  83;

SPARTANBURG    CLEAR     73  70  88 CALM      29.96F
CLEMSON        CLEAR     77  75  93 W5        29.98F
6HR MIN TEMP:  77; 6HR MAX TEMP:  86;

GREENVILLE     CLEAR     78  72  81 W5        29.98F
6HR MIN TEMP:  78; 6HR MAX TEMP:  89;

GREENWOOD      CLEAR     75  73  93 SW6       29.98F
6HR MIN TEMP:  75; 6HR MAX TEMP:  85;

GREER          CLEAR     77  73  87 SW6       29.96F
6HR MIN TEMP:  77; 6HR MAX TEMP:  86;

ROCK HILL      CLEAR     76  74  93 SW6       29.96F
6HR MIN TEMP:  74; 6HR MAX TEMP:  82;

CHESTER        CLEAR     73  72  94 CALM      29.97S
LAURENS        CLEAR     75  72  88 SW5       29.97F


...CENTRAL SOUTH CAROLINA...

CITY           SKY/WX    TMP DP  RH WIND       PRES   REMARKS
COLUMBIA APT   CLEAR     78  72  81 SW3       29.96R
6HR MIN TEMP:  78; 6HR MAX TEMP:  88;

COLUMBIA OWENS PTCLDY    79  74  84 S5        29.97S
6HR MIN TEMP:  79; 6HR MAX TEMP:  87;

MCENTIRE ANGB  CLEAR     77  74  91 SW7       29.97S
6HR MIN TEMP:  77; 6HR MAX TEMP:  85;

ORANGEBURG     CLEAR     76  74  93 SW5       29.98F
6HR MIN TEMP:  76; 6HR MAX TEMP:  83;

SUMTER SHAW    CLEAR     78  74  86 SW10      29.94S
6HR MIN TEMP:  78; 6HR MAX TEMP:  85;

AIKEN          FAIR      73  72  94 SW5       30.02F
BARNWELL       FAIR      79  77  94 SW5       29.98F
MANNING        FAIR      79  70  73 CALM      29.97F
CAMDEN         FAIR      77  73  88 S5        29.96S
LANCASTER      CLEAR     73  73 100 SW3       29.96S
WINNSBORO      CLEAR     75  72  88 SW6       29.97S


...EASTERN AND COASTAL SOUTH CAROLINA...

CITY           SKY/WX    TMP DP  RH WIND       PRES   REMARKS
MYRTLE BEACH   CLEAR     79  75  87 SW7       29.97F
6HR MIN TEMP:  79; 6HR MAX TEMP:  83;

N MYRTLE BCH   CLEAR     80  74  81 SW9       29.96F
6HR MIN TEMP:  80; 6HR MAX TEMP:  83;

CONWAY         FAIR      73  73 100 SW3       29.96F
MARION         FAIR      73  73 100 S6        29.96F
HARTSVILLE     FAIR      73  73 100 SW3       29.95S
FLORENCE       PTCLDY    77  76  96 SW9       29.95F
6HR MIN TEMP:  77; 6HR MAX TEMP:  82;

DARLINGTON     PTCLDY    77  76  96 S7        29.95F
6HR MIN TEMP:  77; 6HR MAX TEMP:  84;

CHARLESTON APT CLEAR     77  76  96 SW5       29.97F
6HR MIN TEMP:  76; 6HR MAX TEMP:  81;

MOUNT PLEASANT FAIR      79  77  94 CALM      29.97F
WALTERBORO     CLEAR     75  73  94 SW3       29.99F
BEAUFORT       CLEAR     79  78  97 SW3       29.98F
6HR MIN TEMP:  79; 6HR MAX TEMP:  82;



...EASTERN GEORGIA...

CITY           SKY/WX    TMP DP  RH WIND       PRES   REMARKS
AUGUSTA BUSH F CLEAR     75  73  93 CALM      29.97F
6HR MIN TEMP:  75; 6HR MAX TEMP:  84;

AUGUSTA DANIEL CLEAR     78  72  81 W3        29.99F
6HR MIN TEMP:  78; 6HR MAX TEMP:  85;

THOMSON        CLOUDY    74  73  96 W3        30.03F
6HR MIN TEMP:  74; 6HR MAX TEMP:  79;

WASHINGTON     FAIR     N/A N/A N/A W5        29.99S
CLAXTON        FAIR      76  75  97 CALM      30.00S
6HR MIN TEMP:  76; 6HR MAX TEMP:  84;

SYLVANIA         N/A     76  76  99 CALM      30.00F
6HR MIN TEMP:  76; 6HR MAX TEMP:  83;

STATESBORO     CLEAR     77  73  85 CALM      30.00S
6HR MIN TEMP:  77; 6HR MAX TEMP:  84;

SAVANNAH       CLEAR     77  75  93 SW5       29.99F
6HR MIN TEMP:  76; 6HR MAX TEMP:  82;



...SOUTHERN NORTH CAROLINA...

CITY           SKY/WX    TMP DP  RH WIND       PRES   REMARKS
CHARLOTTE      CLEAR     78  74  87 SW7       29.95F
6HR MIN TEMP:  78; 6HR MAX TEMP:  84;

MONROE         CLEAR     74  70  87 SW7       29.95S
6HR MIN TEMP:  74; 6HR MAX TEMP:  80;

WADESBORO      CLEAR     77  71  83 S5        29.93S
ROCKINGHAM     CLEAR     77  76  97 S6        29.94F
RUTHERFORDTON  CLEAR     73  73  97 CALM      29.97S
ASHEVILLE      CLEAR     69  66  90 CALM      30.04F
6HR MIN TEMP:  69; 6HR MAX TEMP:  80;


$$



USA.gov is the U.S. government's official web portal to all federal, state and local government web resources and services.